Location: Castillon
(43.0896°N, 0.2156°E)
Time: 00:35:22
(UTC+00:00)

Cosmos 1455 - Pass Details

Date: 16 June 2021
Orbit: 496 x 521 km, 82.5° (Epoch: 04 August)

Event Time Altitude Azimuth Distance (km) Brightness Sun altitude
Rises 23:31:40 0° 347° (NNW) 2,648 7.3 -23.2°
Reaches altitude 10° 23:33:51 10° 343° (NNW) 1,751 5.9 -23.3°
Enters shadow 23:37:16 52° 287° (WNW) 647 2.7 -23.3°
